KM4FZA Weather Reports


time (UTC)temp
C
wind
direction
speed
KPH
gust
KPH
rain 1hr
cm
rain 24hr
cm
rain mn
cm
humidity
%
barometer
mb
20260504213541 27 274 6.4 11.3 0.00 0.00 0.00 25 1016.5
20260504212520 27 249 8.0 11.3 0.00 0.00 0.00 24 1016.5
20260504211520 27 198 9.7 14.5 0.00 0.00 0.00 25 1016.5
20260504210519 27 335 4.8 8.0 0.00 0.00 0.00 25 1016.7
20260504205519 27 262 8.0 11.3 0.00 0.00 0.00 27 1016.7
20260504204518 27 267 9.7 12.9 0.00 0.00 0.00 25 1016.9
20260504203523 27 283 8.0 12.9 0.00 0.00 0.00 26 1017.0
20260504202529 27 32 6.4 9.7 0.00 0.00 0.00 26 1017.0
20260504201517 27 284 8.0 14.5 0.00 0.00 0.00 26 1017.1
20260504200522 27 268 6.4 11.3 0.00 0.00 0.00 26 1017.2
20260504195527 27 259 8.0 11.3 0.00 0.00 0.00 26 1017.3
20260504194535 27 286 4.8 9.7 0.00 0.00 0.00 27 1017.3
20260504193520 27 260 6.4 12.9 0.00 0.00 0.00 27 1017.5
20260504192526 27 256 9.7 12.9 0.00 0.00 0.00 26 1017.7
20260504191551 27 238 6.4 9.7 0.00 0.00 0.00 26 1017.7
20260504190600 27 223 8.0 11.3 0.00 0.00 0.00 26 1017.8
20260504185545 27 240 9.7 14.5 0.00 0.00 0.00 27 1017.9
20260504184530 27 201 4.8 8.0 0.00 0.00 0.00 27 1018.0
20260504183518 27 272 6.4 12.9 0.00 0.00 0.00 27 1018.3
20260504182523 27 265 8.0 11.3 0.00 0.00 0.00 26 1018.2
20260504181528 27 252 6.4 9.7 0.00 0.00 0.00 26 1018.1
20260504180517 26 260 8.0 17.7 0.00 0.00 0.00 27 1018.1
20260504175521 26 315 8.0 11.3 0.00 0.00 0.00 26 1018.4
20260504174527 26 269 4.8 8.0 0.00 0.00 0.00 26 1018.6
20260504173514 26 239 8.0 14.5 0.00 0.00 0.00 26 1018.6
20260504172520 26 241 9.7 12.9 0.00 0.00 0.00 27 1018.7
20260504171526 25 198 6.4 9.7 0.00 0.00 0.00 28 1018.8
20260504170531 25 220 6.4 12.9 0.00 0.00 0.00 26 1018.9
20260504150525 22 228 4.8 8.0 0.00 0.00 0.00 35 1020.3
20260504140522 18 261 4.8 8.0 0.00 0.00 0.00 47 1020.1
20260504130519 14 210 8.0 9.7 0.00 0.00 0.00 62 1020.4
20260504110531 5 0.0 0.0 0.00 0.00 0.00 98 1020.1
20260504100528 5 0.0 0.0 0.00 0.00 0.00 98 1020.1
20260504081516 5 0.0 0.0 0.00 0.00 0.00 93 1019.7
20260504080522 5 0.0 0.0 0.00 0.00 0.00 93 1019.6
20260504050519 7 0.0 0.0 0.00 0.00 0.00 78 1020.1
20260504045518 7 0.0 0.0 0.00 0.00 0.00 78 1020.1
20260504044518 7 0.0 0.0 0.00 0.00 0.00 76 1020.1
20260504043537 7 0.0 0.0 0.00 0.00 0.00 75 1020.1
20260504042517 7 0.0 0.0 0.00 0.00 0.00 75 1020.2
20260504041516 7 0.0 0.0 0.00 0.00 0.00 75 1020.3
20260504040536 7 0.0 0.0 0.00 0.00 0.00 74 1020.3
20260504035536 7 0.0 0.0 0.00 0.00 0.00 73 1020.3
20260504034515 7 0.0 0.0 0.00 0.00 0.00 71 1020.3
20260504033526 7 0.0 0.0 0.00 0.00 0.00 70 1020.3
20260504032532 7 0.0 0.0 0.00 0.00 0.00 69 1020.3
20260504031519 7 0.0 0.0 0.00 0.00 0.00 70 1020.3
20260504030525 7 0.0 0.0 0.00 0.00 0.00 70 1020.3
20260504025530 7 0.0 0.0 0.00 0.00 0.00 70 1020.1
20260504024518 8 0.0 0.0 0.00 0.00 0.00 71 1020.1
20260504023604 8 0.0 0.0 0.00 0.00 0.00 70 1019.8
20260504022549 8 0.0 0.0 0.00 0.00 0.00 69 1019.8
20260504021517 8 0.0 0.0 0.00 0.00 0.00 69 1019.8
20260504020522 8 0.0 0.0 0.00 0.00 0.00 69 1019.7
20260504015547 8 0.0 0.0 0.00 0.00 0.00 66 1019.6
20260504014515 8 0.0 0.0 0.00 0.00 0.00 62 1019.6
20260504013541 9 0.0 0.0 0.00 0.00 0.00 63 1019.4
20260504012526 9 0.0 0.0 0.00 0.00 0.00 60 1019.3
20260504011531 10 0.0 0.0 0.00 0.00 0.00 55 1019.3
20260504010519 10 0.0 0.0 0.00 0.00 0.00 55 1019.1
20260504005524 11 0.0 0.0 0.00 0.00 0.00 53 1019.0
20260504004530 11 0.0 0.0 0.00 0.00 0.00 52 1018.9
20260504003537 12 0.0 0.0 0.00 0.00 0.00 47 1018.9
20260504002543 12 0.0 0.0 0.00 0.00 0.00 42 1018.8
20260504001529 13 0.0 0.0 0.00 0.00 0.00 42 1018.8
20260504000516 14 0.0 0.0 0.00 0.00 0.00 40 1018.8
20260503235542 15 0.0 0.0 0.00 0.00 0.00 38 1018.7
20260503234547 16 0.0 0.0 0.00 0.00 0.00 36 1018.7
20260503233532 17 0.0 0.0 0.00 0.00 0.00 35 1018.7
20260503232540 18 0.0 0.0 0.00 0.00 0.00 34 1018.7
20260503231525 18 253 3.2 4.8 0.00 0.00 0.00 29 1018.7
20260503230531 19 242 4.8 6.4 0.00 0.00 0.00 27 1018.8
20260503225518 21 239 6.4 8.0 0.00 0.00 0.00 25 1018.8
20260503224524 21 223 6.4 8.0 0.00 0.00 0.00 23 1018.9
20260503223529 22 293 4.8 8.0 0.00 0.00 0.00 23 1019.0
20260503222517 22 227 6.4 9.7 0.00 0.00 0.00 23 1019.0
20260503221522 22 302 3.2 6.4 0.00 0.00 0.00 23 1019.1
20260503220528 22 236 8.0 11.3 0.00 0.00 0.00 22 1019.1
20260503215516 22 248 6.4 9.7 0.00 0.00 0.00 23 1019.3
20260503214521 22 248 8.0 11.3 0.00 0.00 0.00 23 1019.3